Theta_e
326 326 326 326 325 324 324 323 323 322 321 321 323 324 325 326 326 326 326 325 325 325 325 326 327 327 327 327 327 327 327 327 328 328 328 328 328 328 328 329 329 330
322 323 323 323 323 323 323 322 322 321 321 321 322 322 323 324 325 326 325 324 324 324 325 325 326 326 326 326 326 326 326 327 328 327 328 328 328 328 328 329 329 330
320 320 320 321 321 322 322 322 321 322 322 322 321 322 322 322 323 325 325 324 324 324 324 325 325 325 324 325 325 326 326 327 327 327 328 328 327 328 328 328 328 329
319 319 320 320 320 320 320 320 320 320 320 321 321 321 321 321 322 323 323 323 324 324 324 324 324 324 324 324 324 325 326 326 327 327 327 327 327 327 328 328 328 329
318 318 317 317 317 318 317 317 318 318 318 319 319 319 320 320 320 320 321 322 322 323 322 321 321 322 323 323 323 324 324 325 325 325 325 327 327 327 327 328 328 329
316 315 315 315 315 315 315 315 316 316 316 317 317 317 317 318 318 318 319 320 320 320 320 320 320 320 321 322 323 323 324 324 325 324 324 325 326 326 327 327 328 329
314 314 314 314 314 314 315 315 315 316 316 316 316 316 316 317 317 317 318 318 318 317 318 319 319 319 319 320 321 321 322 323 324 324 324 324 324 325 326 327 328 329
314 314 314 314 314 314 315 315 315 315 315 315 316 316 316 317 317 317 317 317 316 316 316 317 317 318 318 319 319 320 321 322 323 323 323 323 324 325 325 326 328 329
314 313 313 313 314 314 314 314 314 314 314 315 315 315 315 316 315 315 315 315 315 315 315 315 316 316 316 317 317 318 319 320 321 322 323 323 324 325 326 326 327 328
313 312 312 313 313 313 313 313 313 313 314 314 314 314 314 314 315 315 315 315 315 314 314 314 315 315 315 315 315 316 317 318 319 321 322 323 324 325 326 327 327 327
312 311 312 312 312 312 312 312 312 312 312 313 313 313 314 314 314 314 314 314 314 315 315 315 315 315 315 316 316 316 317 317 319 320 321 322 324 325 326 327 327 327
310 310 311 311 311 311 311 311 311 311 311 311 312 312 312 312 313 313 313 313 313 313 313 314 314 315 315 316 316 317 318 318 319 320 320 321 322 323 324 325 326 326
308 309 309 310 310 310 310 310 310 310 310 310 310 311 311 311 311 311 311 311 311 311 312 312 312 313 314 315 315 316 317 317 318 319 319 320 321 322 323 323 325 326
306 307 307 308 308 308 308 309 309 309 309 309 309 309 310 310 310 310 310 310 310 310 310 310 311 311 312 313 314 314 316 316 317 318 318 319 319 320 321 322 323 324
306 306 306 306 306 306 307 307 307 307 308 308 308 308 308 308 308 308 308 308 308 309 309 309 309 310 310 311 312 313 314 315 316 317 318 319 319 320 320 321 322 323
305 305 305 305 305 305 305 305 305 305 306 306 306 305 306 306 306 306 306 307 307 307 308 308 308 309 309 309 310 312 313 315 316 317 318 319 319 320 320 321 321 323
303 303 303 303 303 303 303 303 304 304 304 304 304 304 304 304 304 305 305 305 306 306 307 307 307 308 308 309 310 311 312 314 315 316 316 317 319 319 320 321 321 322
302 302 301 301 301 301 301 301 302 302 302 302 302 302 302 302 303 303 304 304 305 305 306 306 306 307 307 308 309 310 312 313 314 315 315 317 318 318 319 320 321 322
301 300 300 300 299 299 300 300 300 300 300 300 300 300 301 301 301 302 302 303 303 304 304 305 306 306 306 307 308 309 311 312 313 314 315 316 317 317 318 319 319 320
299 299 299 299 299 299 299 298 298 298 298 299 299 299 300 300 300 301 301 302 302 302 303 303 304 305 305 306 307 308 309 311 312 313 314 314 315 315 316 317 318 319
298 298 298 298 298 298 298 298 298 297 297 298 298 298 299 299 299 300 300 301 301 301 302 302 303 303 304 305 306 306 308 309 310 311 312 312 313 313 314 315 316 317
297 297 297 297 297 297 297 297 297 297 297 297 297 297 298 298 299 299 300 300 300 301 301 301 301 302 302 303 304 305 306 307 308 309 309 310 310 311 312 313 314 315
296 296 296 296 296 296 296 296 296 296 296 296 296 296 297 297 298 299 299 299 300 300 300 300 300 301 301 302 303 304 305 305 306 306 307 307 308 309 309 310 311 312
296 296 296 296 296 295 295 295 296 296 296 296 296 296 296 296 297 297 298 298 299 299 299 300 300 300 300 300 301 302 303 303 304 304 305 305 305 306 307 308 309 310
295 295 295 295 295 295 295 295 295 295 296 296 296 295 295 295 295 296 296 297 298 298 299 299 299 299 299 299 299 300 300 301 301 302 303 303 303 304 305 306 307 308
295 295 295 295 294 294 294 294 294 295 295 296 296 295 295 295 295 295 295 295 296 297 297 298 298 298 298 298 298 299 299 299 300 300 301 301 302 302 303 304 305 306
Wind_Speed
17 18 19 19 19 18 16 15 14 15 15 14 14 14 13 13 14 14 15 15 15 14 14 14 15 16 17 17 17 18 19 21 21 20 20 21 22 22 24 25 26 28
10 12 13 14 14 14 13 13 13 14 14 14 14 14 13 14 14 14 16 16 16 16 15 15 16 17 18 18 18 18 19 20 21 21 21 22 23 24 25 26 27 28
5 6 8 9 10 10 11 12 13 14 15 16 17 16 15 15 14 15 15 16 17 17 17 16 17 18 19 19 19 19 19 20 20 21 22 23 24 25 26 27 27 28
3 4 5 7 8 9 10 11 13 14 15 16 17 17 17 17 17 17 17 18 19 19 19 18 18 19 20 20 20 21 21 21 21 21 22 23 24 25 25 25 26 27
3 4 5 6 7 8 9 9 10 12 13 14 15 16 17 18 19 19 19 20 21 21 21 20 20 20 21 21 22 22 23 23 23 22 22 23 22 23 23 23 23 24
3 3 2 3 4 5 6 6 7 9 10 11 13 14 16 17 19 19 19 20 21 21 21 20 20 20 21 21 22 23 23 23 24 23 23 23 22 21 20 20 21 22
2 1 2 3 3 4 4 5 5 6 8 9 11 12 14 15 17 18 19 19 20 19 19 19 20 21 21 22 22 23 22 22 22 22 23 24 24 22 20 20 20 21
1 3 4 5 5 5 5 5 6 7 8 9 10 10 11 12 14 16 17 19 19 19 18 19 21 22 22 22 23 23 22 22 22 22 23 25 25 24 23 22 21 21
3 5 6 6 6 6 6 7 8 9 10 11 11 11 12 12 13 14 15 17 18 19 19 20 22 23 24 24 24 23 23 22 22 23 24 25 24 25 24 24 24 23
6 7 7 7 7 7 8 9 10 10 11 12 12 13 13 14 14 14 15 16 16 17 18 20 21 22 23 24 23 24 24 23 22 23 24 25 25 25 24 25 25 25
9 8 8 8 8 9 9 10 10 11 11 12 12 13 14 14 15 15 16 16 17 17 18 19 21 22 23 23 22 22 22 23 23 23 24 25 26 26 26 25 24 25
10 9 8 8 9 9 10 9 10 10 11 11 12 13 13 14 15 15 16 17 18 18 18 19 21 22 23 23 22 21 20 20 21 23 24 25 26 26 26 26 24 23
10 9 9 9 9 9 9 9 10 10 11 12 12 13 13 13 14 15 16 17 18 18 19 20 21 22 23 23 23 22 21 21 20 21 23 24 25 26 26 25 24 23
10 9 9 9 9 10 10 10 11 11 12 13 13 14 14 15 15 15 16 17 17 18 19 20 21 23 24 26 26 25 24 23 23 22 22 23 23 24 25 23 23 23
9 10 10 10 10 11 11 11 11 12 12 13 14 15 15 16 16 16 16 16 17 18 18 20 21 22 24 26 28 27 26 25 25 24 23 23 23 22 23 23 22 22
9 10 10 11 11 12 11 12 12 12 13 14 15 16 16 17 17 17 18 17 17 18 18 19 20 21 23 25 26 27 26 24 24 25 24 24 24 23 22 23 23 22
10 11 11 12 12 13 13 13 13 13 14 15 16 17 18 18 19 19 20 20 19 19 19 19 19 20 22 23 24 26 26 23 22 23 24 25 25 25 24 24 23 23
11 11 12 13 13 14 14 14 14 14 15 16 17 19 19 20 20 21 21 21 20 20 20 19 19 20 21 22 24 25 25 23 22 22 23 24 25 26 26 26 25 25
12 12 13 14 14 14 14 14 15 15 16 18 18 19 19 20 21 22 22 22 22 22 22 21 20 20 21 22 24 24 24 22 21 20 21 22 24 25 25 26 26 26
13 13 14 14 13 13 13 14 15 16 17 18 18 19 20 21 22 23 23 24 25 25 24 23 22 22 22 22 23 24 24 22 20 20 21 21 23 24 24 24 24 25
14 14 14 14 14 14 14 14 15 16 17 18 18 19 20 21 22 23 24 25 26 27 27 27 27 26 25 24 24 25 24 23 21 21 21 22 23 24 25 25 25 25
14 14 14 15 15 14 14 15 15 15 16 17 18 19 20 21 23 23 24 25 26 28 29 30 30 30 29 27 26 25 25 25 25 24 24 24 24 25 25 26 26 26
16 16 16 16 16 17 17 16 16 16 16 16 17 18 20 22 23 23 24 26 27 28 30 32 33 33 33 32 30 28 28 28 28 28 27 28 27 27 27 27 26 26
18 18 19 19 19 20 19 18 17 16 16 15 16 18 19 21 22 23 24 26 27 29 30 32 33 35 35 35 34 33 32 31 31 31 31 32 31 30 29 29 29 28
20 20 21 21 21 21 20 19 18 16 15 15 15 16 18 19 21 23 25 26 28 29 29 30 32 33 34 35 36 35 35 34 34 34 34 35 35 34 33 33 32 32
22 23 23 23 23 23 22 20 19 17 16 15 15 16 16 18 20 22 24 26 27 29 30 30 31 32 33 34 34 35 36 36 36 36 36 36 36 36 37 37 37 37
Wind_Direction
271 273 276 279 282 285 287 288 286 285 289 294 298 299 299 301 304 305 304 305 306 303 297 289 284 283 281 281 281 281 282 283 283 283 281 279 277 274 272 270 269 270
268 272 277 280 282 282 280 279 281 284 287 290 292 293 293 293 295 298 299 299 298 297 295 292 288 286 283 282 282 281 281 283 283 283 281 279 278 277 275 273 271 271
268 272 275 278 280 281 279 278 278 280 283 284 286 289 290 290 289 290 292 294 294 294 295 294 292 291 289 288 287 286 285 285 285 284 282 279 279 280 279 278 274 270
286 281 279 280 280 280 281 280 277 277 279 282 283 285 287 289 288 286 286 288 289 290 290 290 291 294 296 295 293 291 289 287 286 287 288 287 285 284 285 285 280 273
304 294 291 289 284 282 283 282 280 279 280 282 284 285 286 287 287 287 286 286 287 290 292 292 292 293 295 298 297 295 293 292 290 290 294 296 294 292 292 292 287 278
305 302 307 307 299 292 292 289 286 283 283 286 287 288 288 287 287 288 288 288 289 292 297 300 300 297 295 297 298 298 298 298 297 296 296 296 294 293 297 298 293 283
303 2 20 351 335 321 316 313 308 302 299 300 297 295 293 291 289 289 288 288 290 293 298 301 302 301 299 298 297 297 298 299 300 299 297 295 292 290 292 294 293 287
87 62 37 17 10 3 357 352 346 343 337 331 325 319 314 309 305 301 296 293 292 293 296 297 298 299 299 299 299 300 300 298 297 296 297 296 294 293 294 293 291 287
81 54 41 32 27 23 17 12 7 3 357 352 349 346 342 337 332 327 320 313 309 306 303 301 300 299 297 296 297 298 299 299 299 298 300 300 296 294 294 294 293 288
75 58 47 37 32 30 25 21 15 10 4 1 360 357 355 353 350 346 342 336 330 325 322 319 316 314 312 310 307 302 300 301 301 300 301 302 301 298 295 294 292 290
73 64 52 42 35 32 29 25 19 15 11 8 6 3 1 358 356 354 353 350 347 343 340 336 333 331 330 329 325 318 311 304 299 298 298 299 301 303 300 297 294 291
70 63 51 41 34 28 26 23 18 15 12 10 10 7 4 2 360 359 358 356 354 351 347 343 341 338 336 334 332 329 323 313 303 297 294 292 296 300 301 300 298 294
65 58 47 38 30 24 20 16 13 10 8 8 8 5 2 1 1 359 358 355 352 350 347 345 343 340 338 335 334 333 332 327 318 309 300 292 289 293 297 300 301 298
64 55 45 36 30 25 19 14 10 6 4 3 1 359 358 359 358 356 353 351 348 346 345 345 344 342 340 337 335 334 333 331 329 323 315 305 294 290 291 294 297 296
58 48 40 34 30 26 22 18 14 11 9 6 3 3 3 3 2 359 356 353 350 348 347 346 347 348 348 345 339 335 332 329 329 326 322 316 307 298 290 287 288 290
52 45 40 35 31 30 29 27 24 21 17 14 13 12 11 10 8 5 4 2 360 357 355 353 353 354 354 349 343 339 335 329 326 327 326 323 318 311 299 289 283 283
55 50 45 41 38 38 37 34 31 27 23 20 19 18 17 15 13 10 9 7 5 3 2 0 0 359 354 349 345 343 340 335 331 331 332 330 327 322 313 301 290 283
59 54 50 48 45 43 40 38 34 31 28 25 23 22 21 19 18 17 15 12 9 6 4 3 2 360 356 353 350 348 345 341 338 336 335 332 330 327 321 314 305 295
63 59 56 52 48 45 43 41 38 35 32 29 27 25 23 23 23 21 20 18 15 12 9 5 2 360 359 357 355 354 352 346 341 339 338 335 334 332 327 322 315 307
67 62 59 54 51 49 45 44 41 38 35 32 28 26 25 25 25 24 23 21 19 17 15 11 7 4 1 359 359 358 357 353 349 345 342 340 339 339 336 331 325 319
68 63 59 56 54 51 49 47 45 41 38 34 30 29 28 28 27 26 25 24 22 21 19 16 15 11 6 4 3 2 2 2 1 357 353 349 348 347 346 341 335 330
68 64 61 59 56 55 53 51 49 45 43 38 34 33 32 31 30 28 28 27 25 24 22 21 19 16 12 8 5 4 5 8 9 8 4 0 358 356 353 349 342 336
69 65 64 61 58 57 55 53 51 49 46 42 38 37 35 34 33 31 29 28 27 26 25 24 23 20 17 13 9 7 7 9 12 13 11 9 6 3 1 358 353 347
71 68 66 63 60 58 57 54 53 50 48 45 42 40 40 38 36 34 32 30 29 29 28 27 26 24 21 18 15 12 10 9 10 11 12 11 8 7 6 4 1 358
72 71 69 66 63 62 60 58 57 54 51 49 46 45 44 41 39 37 35 34 32 30 29 28 27 26 23 21 20 18 16 14 12 12 12 10 8 7 7 7 6 3
71 71 69 66 64 63 62 61 60 58 55 53 51 49 47 44 41 39 38 37 35 32 30 27 26 26 24 22 21 20 19 18 16 15 14 11 9 7 7 9 9 6